Location: Godzisko
(49.9648°N, 19.4576°E)
Time: 07:41:19
(UTC+00:00)

NPP - Pass Details

Date: 20 April 2021
Orbit: 826 x 828 km, 98.7° (Epoch: 05 May)

Event Time Altitude Azimuth Distance (km) Brightness Sun altitude
Rises 00:25:45 0° 16° (NNE) 3,378 8.1 -24.4°
Reaches altitude 10° 00:28:08 10° 19° (NNE) 2,440 7.1 -24.2°
Maximum altitude 00:33:32 70° 103° (ESE) 881 3.7 -23.8°
Enters shadow 00:34:52 50° 167° (SSE) 1,048 3.8 -23.7°
